SCP
0 0 0 0 0 0 0 0 0 0 -0 -0 -0 -0 -0 -0 -0 -0 -0 -0 -0 -0 -0 0 0 0 0 -0 -0 -0 -0 -0 0 0 0 -0 -0 -0 -0 -0 0 -0 -0 -0 0 0 -0
0 0 0 0 0 0 0 0 0 0 0 -0 -0 -0 -0 -0 -0 -0 -0 -0 -0 -0 -0 -0 0 0 0 -0 0 -0 -0 -0 -0 0 -0 0 0 0 -0 -0 -0 -0 -0 -0 -0 0 0
0 0 0 0 0 0 0 0 0 0 0 -0 -0 -0 -0 -0 -0 -0 -0 -0 -0 -0 -0 -0 0 0 -0 -0 -0 -0 -0 -0 -0 -0 -0 0 -0 -0 -0 -0 -0 -0 -0 -0 -0 0 0
0 0 0 0 0 0 0 0 0 0 0 0 -0 -0 -0 -0 -0 -0 -0 -0 -0 -0 -0 -0 0 0 -0 -0 0 -0 -0 0 0 0 0 -0 -0 -0 -0 -0 -0 0 0 0 -0 -0 0
0 0 0 0 0 0 0 0 0 0 0 0 -0 -0 -0 -0 -0 -0 -0 -0 -0 -0 -0 0 0 0 -0 0 -0 0 0 0 -0 -0 0 -0 -0 -0 -0 -0 -0 0 0 0 -0 -0 -0
0 0 0 0 0 0 0 0 0 0 0 0 -0 -0 -0 -0 -0 -0 -0 0 0 0 0 -0 -0 0 -0 0 0 -0 -0 -0 -0 0 -0 -0 -0 -0 0 0 0 0 0 -0 0 0 -0
0 0 0 0 0 0 0 0 0 0 0 0 -0 -0 -0 -0 -0 -0 -0 0 0 0 -0 -0 0 -0 -0 -0 0 -0 0 0 -0 -0 -0 -0 -0 0 -0 0 0 -0 -0 0 0 0 0
0 0 0 0 0 0 0 0 0 0 0 0 0 -0 -0 -0 -0 -0 0 0 0 0 0 -0 -0 -0 -0 -0 0 0 -0 0 -0 -0 -0 -0 -0 0 -0 0 -0 0 -0 0 -0 0 0
0 0 0 0 0 0 0 0 0 0 0 0 0 -0 -0 -0 -0 -0 -0 0 0 0 0 0 0 -0 0 0 -0 -0 -0 0 -0 -0 -0 -0 0 0 -0 -0 -0 -0 -0 0 0 -0 0
0 0 0 0 0 0 0 0 0 0 0 0 0 -0 -0 -0 0 -0 0 0 0 0 0 0 -0 0 0 -0 -0 -0 -0 -0 -0 -0 -0 -0 -0 0 0 -0 -0 0 -0 0 0 0 -0
0 0 -0 0 0 0 0 0 0 0 0 0 0 0 -0 0 0 0 0 0 0 0 0 0 -0 -0 0 0 -0 -0 0 0 -0 -0 -0 -0 -0 -0 -0 0 0 0 0 0 0 0 0
0 0 0 0 0 0 0 0 0 0 0 0 0 0 0 -0 0 -0 -0 0 0 0 0 0 0 0 -0 0 -0 -0 -0 0 -0 0 -0 -0 0 0 0 -0 0 0 0 0 0 0 0
0 0 0 0 0 0 0 0 0 0 0 0 0 -0 0 0 0 0 0 0 0 0 0 0 -0 -0 -0 -0 0 -0 0 -0 -0 -0 -0 -0 -0 -0 0 0 -0 0 0 -0 0 1 0
0 0 0 0 0 0 0 0 0 0 0 0 -0 -0 0 0 0 0 0 0 0 0 0 0 0 -0 -0 0 -0 -0 0 -0 -0 -0 -0 -0 0 0 0 0 0 0 0 0 0 0 0
0 0 0 0 0 0 0 0 0 0 0 0 -0 0 0 0 0 0 0 0 0 0 0 0 -0 0 -0 -0 0 0 -0 0 0 -0 -0 -0 -0 0 0 0 -0 0 0 0 0 -0 0
0 0 0 0 0 0 0 0 0 0 0 0 0 0 0 0 0 0 0 0 0 0 0 0 -0 -0 -0 -0 0 0 -0 -0 0 0 0 -0 0 0 0 0 0 -0 0 0 0 0 0
0 0 0 0 0 0 0 0 0 0 0 0 0 0 0 0 0 0 0 0 0 0 0 0 0 0 0 0 0 0 0 0 0 -0 0 0 0 0 0 0 0 0 0 0 0 0 0
0 0 0 0 0 0 0 0 0 0 0 0 0 0 0 0 0 0 0 0 0 0 0 0 0 0 0 0 0 0 0 0 0 0 0 0 0 -0 0 0 0 0 0 0 0 0 0
0 0 0 0 0 0 0 0 0 0 0 0 0 0 0 0 0 0 0 0 0 0 0 0 0 0 0 0 0 0 0 0 0 0 0 0 0 0 -0 -0 0 0 0 -0 0 0 0
0 0 0 0 0 0 0 0 0 0 0 0 0 0 0 0 0 0 0 0 0 0 0 0 0 0 0 -0 0 0 0 0 0 0 0 0 0 -0 -0 0 0 0 0 -0 0 0 0
0 0 0 0 0 0 0 0 0 0 0 0 0 0 0 0 0 0 0 0 0 0 0 0 0 0 -0 0 0 -0 -0 0 0 0 0 0 0 -0 0 -0 0 0 0 -0 -0 0 0
0 0 0 0 0 0 0 0 0 0 0 0 0 0 0 0 0 0 0 0 0 0 0 0 0 0 0 0 0 0 0 0 0 0 0 0 0 0 0 0 0 0 -0 0 -0 0 0
0 0 0 0 0 0 0 0 0 0 0 0 0 0 0 0 0 0 0 0 0 0 0 0 0 0 0 0 0 0 0 0 0 0 0 0 0 0 0 0 0 0 0 0 0 0 0
0 0 0 0 0 0 0 0 0 0 0 0 0 0 0 0 0 0 0 0 0 0 0 0 0 0 0 0 0 0 0 0 0 0 0 0 0 0 0 -0 0 0 0 0 0 0 0
0 0 0 0 0 0 0 0 0 0 0 0 0 0 0 0 0 0 0 0 0 0 0 0 0 0 0 0 0 0 0 0 0 -0 0 1 0 0 0 0 -0 0 0 0 0 -0 0
0 0 0 0 0 0 0 0 0 0 0 0 0 0 0 0 0 0 0 0 0 0 0 0 0 0 0 0 0 0 0 -0 0 0 0 0 1 0 0 0 -0 0 -0 -0 -0 0 0
0 0 0 0 0 0 0 0 0 0 0 0 0 0 0 0 0 0 0 0 0 0 0 0 0 0 0 0 0 0 0 0 0 0 0 1 1 0 -0 0 -0 0 0 0 0 1 1
0 0 0 0 0 0 0 0 0 0 0 0 0 0 0 0 0 0 0 0 0 0 0 0 0 0 0 0 0 0 0 0 0 0 0 1 1 0 0 -0 0 0 0 0 1 1 0
0 0 0 0 0 0 0 0 0 0 0 0 0 0 0 0 0 0 0 0 0 0 0 0 0 0 1 0 0 0 0 0 0 0 0 0 0 1 0 0 -0 -0 0 0 0 1 1
Wind_Speed_500mb
22 26 31 31 32 32 35 37 40 41 41 42 43 45 46 47 45 42 35 27 28 25 19 19 23 22 19 20 36 7 6 8 10 18 20 31 34 28 25 28 13 26 19 31 4 23 19
23 26 29 33 31 32 34 35 39 41 42 43 44 44 47 48 47 44 32 27 30 23 18 19 20 21 18 32 9 5 7 8 12 18 25 24 24 28 35 23 20 41 74 83 50 11 23
22 25 29 33 35 35 37 38 39 42 43 43 44 44 46 48 47 44 30 28 27 17 16 16 18 18 20 39 5 8 14 12 15 21 26 31 23 29 41 27 40 72 38 11 80 32 22
18 23 27 31 35 37 38 39 40 42 43 43 44 45 45 48 48 40 30 27 19 14 9 11 14 15 20 35 21 21 20 20 21 23 27 29 29 31 41 36 37 20 21 15 55 41 20
16 20 26 31 33 36 39 40 41 42 44 44 45 46 44 47 47 38 30 30 13 10 6 8 12 14 36 22 28 23 25 26 28 23 27 30 28 38 46 40 23 5 14 24 44 66 53
21 21 26 32 36 38 39 41 40 43 43 45 45 46 44 45 46 35 28 20 12 9 7 7 12 14 40 31 32 32 29 26 23 23 32 35 41 31 5 16 32 24 40 38 14 14 45
23 25 28 32 36 40 41 42 42 42 43 44 46 47 44 42 42 29 25 27 11 3 17 24 22 39 26 31 32 31 27 23 28 32 30 43 31 4 56 17 23 29 33 32 17 27 35
28 26 29 34 36 40 43 43 43 42 43 44 45 46 44 38 33 24 26 22 16 18 22 34 37 44 28 5 23 32 33 29 29 29 37 35 17 24 48 25 30 28 32 29 24 25 13
30 30 31 34 39 40 43 45 45 43 44 43 44 45 44 36 23 22 18 11 19 22 16 29 41 36 25 27 35 38 41 32 37 33 32 35 18 20 41 25 32 33 26 30 35 41 9
36 37 36 38 40 42 43 45 46 44 44 43 41 43 42 39 13 19 13 17 20 18 10 24 42 41 42 36 39 40 38 33 38 30 33 33 30 21 13 27 34 28 38 41 37 35 19
42 40 40 41 43 44 44 45 46 46 44 43 40 40 35 39 33 15 18 23 21 7 10 35 39 20 40 41 41 38 11 24 32 34 19 27 34 32 20 24 31 30 36 31 24 22 14
46 42 42 42 45 47 46 45 45 46 45 44 38 37 36 34 31 15 25 27 15 11 16 16 24 27 38 44 45 30 40 29 30 27 33 39 34 34 19 25 29 21 28 4 20 9 13
47 45 43 42 44 46 46 45 44 46 46 45 38 33 38 34 24 18 23 21 12 16 14 21 33 33 35 39 39 26 18 25 25 23 29 38 39 35 28 17 36 21 27 18 7 3 10
46 48 43 43 45 45 46 45 44 44 45 46 38 34 35 32 21 22 17 18 14 26 16 10 19 31 38 32 36 40 22 30 33 31 31 32 16 21 12 9 17 27 25 14 28 21 27
52 48 46 42 43 41 43 44 44 41 40 45 38 30 34 26 18 10 17 17 14 22 10 2 17 24 33 35 23 33 30 28 23 36 23 26 19 19 9 11 24 14 19 26 31 29 8
56 52 48 43 43 41 42 43 42 37 33 39 40 32 32 19 21 13 16 27 30 18 15 18 16 21 29 36 27 21 31 31 27 26 18 26 17 17 16 6 23 25 19 14 10 21 13
60 54 50 45 42 40 39 39 39 34 25 31 27 16 8 19 12 21 19 32 22 6 10 17 23 18 26 22 26 26 17 20 22 19 21 16 13 26 32 18 26 9 7 3 6 5 3
67 59 54 47 42 40 37 36 36 31 20 14 14 14 20 22 17 26 25 43 15 18 15 20 15 23 15 5 10 18 25 13 18 3 21 20 13 19 31 17 27 21 26 25 9 9 7
64 60 55 47 41 39 35 32 32 27 19 13 12 32 21 20 14 22 37 43 15 20 22 17 13 19 9 4 8 11 15 16 9 4 5 10 4 14 31 22 6 11 14 36 12 10 23
66 62 58 51 43 38 32 30 29 24 17 9 10 9 30 28 39 34 34 29 28 27 20 13 20 8 8 17 7 8 7 12 10 4 11 14 10 16 22 29 21 17 32 31 9 8 20
70 64 58 53 47 40 35 29 27 24 18 7 10 15 18 14 30 36 33 31 26 19 25 24 19 21 21 11 20 22 16 23 17 12 4 1 10 23 30 37 37 30 28 32 29 21 21
71 67 62 55 48 43 36 31 26 24 22 18 11 14 19 34 23 22 27 25 29 27 21 26 22 25 27 14 7 21 29 24 13 12 16 10 15 23 32 36 34 38 37 26 32 25 18
73 70 66 59 52 45 38 34 28 26 24 13 16 24 16 24 25 18 18 28 32 33 9 26 23 15 12 19 20 10 14 12 7 10 11 14 13 17 29 35 25 28 13 37 27 29 32
78 71 66 60 51 48 41 37 31 29 31 32 7 16 16 20 23 23 35 38 34 19 18 19 16 15 14 16 17 11 18 23 29 20 18 17 14 18 23 28 37 14 22 16 12 40 18
78 73 69 61 52 49 43 39 34 31 34 37 26 11 21 17 37 28 41 30 20 7 14 19 9 6 11 14 10 11 18 25 31 33 28 22 16 21 22 27 37 13 13 13 12 20 24
79 74 69 61 54 48 44 40 36 32 32 32 30 10 18 18 17 28 29 28 15 18 21 33 29 1 6 15 18 24 26 31 28 35 32 26 21 16 23 31 39 14 18 53 61 10 31
70 79 71 62 54 49 44 40 37 32 31 28 18 27 24 24 35 22 16 15 15 28 17 28 35 11 17 17 22 27 27 33 33 32 22 5 8 8 32 28 35 21 36 35 19 10 27
74 76 68 60 54 48 43 39 36 32 31 32 14 22 22 28 42 26 18 17 24 15 17 14 6 10 13 19 23 24 25 28 28 28 25 18 14 9 17 19 22 29 36 17 12 18 25
80 75 66 58 51 47 43 39 35 32 31 30 10 15 18 24 29 18 25 23 15 11 16 11 8 10 17 9 18 21 23 21 24 25 22 23 9 11 14 22 24 18 24 18 21 15 23
Wind_Direction_500mb
342 337 339 344 349 353 351 350 347 354 353 351 351 349 350 348 346 341 337 330 325 314 289 273 257 253 257 261 255 214 186 246 255 278 288 301 304 354 330 337 9 325 38 27 94 69 32
331 330 333 334 343 348 348 347 344 348 349 347 347 345 347 347 346 342 337 328 326 311 283 268 248 246 249 256 189 215 213 245 243 263 284 290 332 331 296 321 335 22 36 9 333 12 91
321 325 332 333 338 345 344 344 343 343 344 345 342 340 344 345 345 342 335 330 328 316 287 259 238 242 251 238 196 213 213 227 250 267 283 306 327 315 309 306 48 76 63 285 284 278 109
311 321 328 328 334 340 340 340 341 340 339 341 338 338 341 342 344 340 336 327 322 339 293 247 226 224 251 237 243 218 221 238 253 267 274 282 297 301 280 50 26 46 5 131 274 271 148
308 317 321 323 331 334 336 336 337 337 335 338 337 336 338 340 343 340 336 326 301 318 331 230 212 214 244 223 220 227 225 237 247 250 266 276 282 275 284 18 351 271 223 199 234 351 324
306 317 318 322 327 329 331 331 333 334 333 335 335 334 337 338 343 343 336 322 301 278 334 195 216 244 262 221 220 221 225 239 274 258 260 256 260 258 246 166 242 228 237 234 110 213 322
294 306 314 320 323 324 326 325 330 329 330 331 333 332 334 336 342 348 3 355 303 240 230 221 175 218 214 226 206 206 213 227 245 262 274 268 258 31 298 338 338 313 320 348 112 155 191
284 298 308 315 319 321 322 323 325 325 326 328 330 330 332 334 339 5 348 352 16 331 297 257 256 236 259 295 207 222 223 224 244 250 260 255 266 8 310 317 304 291 308 346 308 1 12
277 292 303 310 313 317 317 321 321 321 321 323 327 328 330 331 334 357 334 342 335 329 269 264 226 231 223 225 241 210 211 221 246 243 256 275 268 196 248 295 300 317 317 346 332 325 331
276 287 296 303 309 313 314 317 318 319 318 319 323 326 330 329 327 324 339 334 330 321 273 217 201 222 220 214 228 234 206 227 244 256 268 273 281 267 300 294 283 308 347 331 329 360 46
272 282 290 298 304 309 311 314 315 316 315 313 319 321 322 323 317 316 325 325 319 290 259 141 185 191 206 208 216 222 223 220 251 275 259 269 287 314 281 316 333 315 322 319 20 10 350
268 277 285 294 299 303 308 309 311 313 311 309 312 315 311 317 311 334 317 312 305 236 241 158 139 186 197 206 227 214 204 229 263 270 279 287 284 289 275 283 302 301 288 228 52 26 339
260 271 278 287 295 299 301 307 309 309 309 306 307 306 299 296 275 284 314 306 236 247 121 154 180 192 202 198 222 211 192 220 230 240 250 257 251 245 255 312 285 237 299 317 271 36 237
256 262 271 281 290 296 300 302 305 306 308 303 305 301 292 283 282 282 298 266 257 245 216 82 190 190 202 201 208 224 217 239 213 244 274 287 335 267 164 252 318 317 299 310 321 327 349
251 259 268 275 282 287 294 299 301 305 308 303 309 303 284 278 282 252 264 243 244 345 37 207 221 186 200 208 202 216 209 253 239 210 246 284 317 149 199 307 300 321 319 345 333 289 329
247 254 263 268 274 283 291 296 297 303 305 308 315 311 277 243 212 228 246 254 297 308 329 295 226 210 195 205 195 222 214 218 246 279 194 268 311 287 120 221 267 246 294 329 335 316 19
241 250 258 259 265 275 286 293 296 299 302 306 311 280 190 190 190 225 237 239 270 89 305 266 276 220 235 198 200 215 230 242 198 246 243 265 271 289 315 278 277 195 231 255 298 311 11
241 246 249 251 261 275 284 293 296 299 299 311 286 254 182 185 214 234 245 243 270 279 260 256 277 298 251 63 181 219 220 207 69 236 280 231 228 269 281 333 36 28 336 302 311 336 218
236 237 240 244 255 268 279 289 290 293 298 308 259 259 233 205 237 237 242 255 244 256 254 235 256 283 346 136 209 255 109 76 79 216 7 292 261 259 264 236 43 316 270 258 249 230 276
232 231 232 237 245 257 271 285 284 279 284 288 287 258 223 221 242 278 287 269 235 217 276 281 296 245 237 262 175 259 210 118 143 196 69 11 300 270 288 315 301 220 235 269 289 256 288
229 229 233 235 241 250 262 272 275 268 265 251 237 255 299 211 226 237 253 284 234 207 212 215 248 251 233 240 230 203 253 133 162 162 204 208 261 272 277 285 291 301 289 283 291 287 276
224 226 229 233 238 245 254 266 265 256 253 238 264 295 327 279 301 280 228 250 273 235 214 220 227 234 248 233 345 17 11 23 165 145 208 186 266 264 279 283 281 278 290 279 277 291 307
221 225 225 228 233 241 251 259 256 247 236 232 255 286 280 283 240 263 241 234 249 256 266 249 317 252 255 32 7 10 350 340 333 315 213 190 251 265 270 287 320 306 302 351 346 338 329
219 221 221 223 229 240 248 250 245 238 233 223 264 325 282 257 265 233 245 232 233 246 234 265 224 267 28 331 306 279 305 296 275 244 250 283 256 267 278 280 275 3 113 192 9 315 313
215 216 217 220 225 236 245 242 238 232 234 233 223 283 286 283 270 273 246 241 262 242 247 274 266 80 337 301 266 245 254 247 247 251 236 202 261 283 283 282 279 225 36 309 166 285 344
214 212 216 219 225 235 237 234 231 228 231 233 210 247 247 288 248 326 307 215 243 240 245 236 246 10 317 264 236 244 254 257 229 228 237 204 199 249 269 284 291 253 121 216 248 247 36
225 211 213 218 225 230 230 226 225 222 225 220 203 222 236 264 278 311 331 332 270 260 289 231 215 200 216 249 242 246 241 240 262 266 236 84 350 71 295 253 262 29 180 254 279 37 345
224 207 209 214 218 224 221 218 219 216 218 212 211 237 222 259 273 304 298 304 323 300 269 11 233 197 261 234 247 247 255 264 269 255 268 182 149 179 240 313 245 350 346 2 328 323 325
215 199 204 207 213 216 213 211 213 211 209 204 225 261 235 247 267 308 288 263 275 303 328 300 337 308 6 281 238 261 263 268 263 271 234 246 281 169 152 217 201 190 203 252 242 350 332
Wind_Speed_850mb
22 26 31 31 32 32 35 37 40 41 41 42 43 45 46 47 45 42 35 27 28 25 19 19 23 22 19 20 36 7 6 8 10 18 20 31 34 28 25 28 13 26 19 31 4 23 19
23 26 29 33 31 32 34 35 39 41 42 43 44 44 47 48 47 44 32 27 30 23 18 19 20 21 18 32 9 5 7 8 12 18 25 24 24 28 35 23 20 41 74 83 50 11 23
22 25 29 33 35 35 37 38 39 42 43 43 44 44 46 48 47 44 30 28 27 17 16 16 18 18 20 39 5 8 14 12 15 21 26 31 23 29 41 27 40 72 38 11 80 32 22
18 23 27 31 35 37 38 39 40 42 43 43 44 45 45 48 48 40 30 27 19 14 9 11 14 15 20 35 21 21 20 20 21 23 27 29 29 31 41 36 37 20 21 15 55 41 20
16 20 26 31 33 36 39 40 41 42 44 44 45 46 44 47 47 38 30 30 13 10 6 8 12 14 36 22 28 23 25 26 28 23 27 30 28 38 46 40 23 5 14 24 44 66 53
21 21 26 32 36 38 39 41 40 43 43 45 45 46 44 45 46 35 28 20 12 9 7 7 12 14 40 31 32 32 29 26 23 23 32 35 41 31 5 16 32 24 40 38 14 14 45
23 25 28 32 36 40 41 42 42 42 43 44 46 47 44 42 42 29 25 27 11 3 17 24 22 39 26 31 32 31 27 23 28 32 30 43 31 4 56 17 23 29 33 32 17 27 35
28 26 29 34 36 40 43 43 43 42 43 44 45 46 44 38 33 24 26 22 16 18 22 34 37 44 28 5 23 32 33 29 29 29 37 35 17 24 48 25 30 28 32 29 24 25 13
30 30 31 34 39 40 43 45 45 43 44 43 44 45 44 36 23 22 18 11 19 22 16 29 41 36 25 27 35 38 41 32 37 33 32 35 18 20 41 25 32 33 26 30 35 41 9
36 37 36 38 40 42 43 45 46 44 44 43 41 43 42 39 13 19 13 17 20 18 10 24 42 41 42 36 39 40 38 33 38 30 33 33 30 21 13 27 34 28 38 41 37 35 19
42 40 40 41 43 44 44 45 46 46 44 43 40 40 35 39 33 15 18 23 21 7 10 35 39 20 40 41 41 38 11 24 32 34 19 27 34 32 20 24 31 30 36 31 24 22 14
46 42 42 42 45 47 46 45 45 46 45 44 38 37 36 34 31 15 25 27 15 11 16 16 24 27 38 44 45 30 40 29 30 27 33 39 34 34 19 25 29 21 28 4 20 9 13
47 45 43 42 44 46 46 45 44 46 46 45 38 33 38 34 24 18 23 21 12 16 14 21 33 33 35 39 39 26 18 25 25 23 29 38 39 35 28 17 36 21 27 18 7 3 10
46 48 43 43 45 45 46 45 44 44 45 46 38 34 35 32 21 22 17 18 14 26 16 10 19 31 38 32 36 40 22 30 33 31 31 32 16 21 12 9 17 27 25 14 28 21 27
52 48 46 42 43 41 43 44 44 41 40 45 38 30 34 26 18 10 17 17 14 22 10 2 17 24 33 35 23 33 30 28 23 36 23 26 19 19 9 11 24 14 19 26 31 29 8
56 52 48 43 43 41 42 43 42 37 33 39 40 32 32 19 21 13 16 27 30 18 15 18 16 21 29 36 27 21 31 31 27 26 18 26 17 17 16 6 23 25 19 14 10 21 13
60 54 50 45 42 40 39 39 39 34 25 31 27 16 8 19 12 21 19 32 22 6 10 17 23 18 26 22 26 26 17 20 22 19 21 16 13 26 32 18 26 9 7 3 6 5 3
67 59 54 47 42 40 37 36 36 31 20 14 14 14 20 22 17 26 25 43 15 18 15 20 15 23 15 5 10 18 25 13 18 3 21 20 13 19 31 17 27 21 26 25 9 9 7
64 60 55 47 41 39 35 32 32 27 19 13 12 32 21 20 14 22 37 43 15 20 22 17 13 19 9 4 8 11 15 16 9 4 5 10 4 14 31 22 6 11 14 36 12 10 23
66 62 58 51 43 38 32 30 29 24 17 9 10 9 30 28 39 34 34 29 28 27 20 13 20 8 8 17 7 8 7 12 10 4 11 14 10 16 22 29 21 17 32 31 9 8 20
70 64 58 53 47 40 35 29 27 24 18 7 10 15 18 14 30 36 33 31 26 19 25 24 19 21 21 11 20 22 16 23 17 12 4 1 10 23 30 37 37 30 28 32 29 21 21
71 67 62 55 48 43 36 31 26 24 22 18 11 14 19 34 23 22 27 25 29 27 21 26 22 25 27 14 7 21 29 24 13 12 16 10 15 23 32 36 34 38 37 26 32 25 18
73 70 66 59 52 45 38 34 28 26 24 13 16 24 16 24 25 18 18 28 32 33 9 26 23 15 12 19 20 10 14 12 7 10 11 14 13 17 29 35 25 28 13 37 27 29 32
78 71 66 60 51 48 41 37 31 29 31 32 7 16 16 20 23 23 35 38 34 19 18 19 16 15 14 16 17 11 18 23 29 20 18 17 14 18 23 28 37 14 22 16 12 40 18
78 73 69 61 52 49 43 39 34 31 34 37 26 11 21 17 37 28 41 30 20 7 14 19 9 6 11 14 10 11 18 25 31 33 28 22 16 21 22 27 37 13 13 13 12 20 24
79 74 69 61 54 48 44 40 36 32 32 32 30 10 18 18 17 28 29 28 15 18 21 33 29 1 6 15 18 24 26 31 28 35 32 26 21 16 23 31 39 14 18 53 61 10 31
70 79 71 62 54 49 44 40 37 32 31 28 18 27 24 24 35 22 16 15 15 28 17 28 35 11 17 17 22 27 27 33 33 32 22 5 8 8 32 28 35 21 36 35 19 10 27
74 76 68 60 54 48 43 39 36 32 31 32 14 22 22 28 42 26 18 17 24 15 17 14 6 10 13 19 23 24 25 28 28 28 25 18 14 9 17 19 22 29 36 17 12 18 25
80 75 66 58 51 47 43 39 35 32 31 30 10 15 18 24 29 18 25 23 15 11 16 11 8 10 17 9 18 21 23 21 24 25 22 23 9 11 14 22 24 18 24 18 21 15 23
Wind_Direction_850mb
342 337 339 344 349 353 351 350 347 354 353 351 351 349 350 348 346 341 337 330 325 314 289 273 257 253 257 261 255 214 186 246 255 278 288 301 304 354 330 337 9 325 38 27 94 69 32
331 330 333 334 343 348 348 347 344 348 349 347 347 345 347 347 346 342 337 328 326 311 283 268 248 246 249 256 189 215 213 245 243 263 284 290 332 331 296 321 335 22 36 9 333 12 91
321 325 332 333 338 345 344 344 343 343 344 345 342 340 344 345 345 342 335 330 328 316 287 259 238 242 251 238 196 213 213 227 250 267 283 306 327 315 309 306 48 76 63 285 284 278 109
311 321 328 328 334 340 340 340 341 340 339 341 338 338 341 342 344 340 336 327 322 339 293 247 226 224 251 237 243 218 221 238 253 267 274 282 297 301 280 50 26 46 5 131 274 271 148
308 317 321 323 331 334 336 336 337 337 335 338 337 336 338 340 343 340 336 326 301 318 331 230 212 214 244 223 220 227 225 237 247 250 266 276 282 275 284 18 351 271 223 199 234 351 324
306 317 318 322 327 329 331 331 333 334 333 335 335 334 337 338 343 343 336 322 301 278 334 195 216 244 262 221 220 221 225 239 274 258 260 256 260 258 246 166 242 228 237 234 110 213 322
294 306 314 320 323 324 326 325 330 329 330 331 333 332 334 336 342 348 3 355 303 240 230 221 175 218 214 226 206 206 213 227 245 262 274 268 258 31 298 338 338 313 320 348 112 155 191
284 298 308 315 319 321 322 323 325 325 326 328 330 330 332 334 339 5 348 352 16 331 297 257 256 236 259 295 207 222 223 224 244 250 260 255 266 8 310 317 304 291 308 346 308 1 12
277 292 303 310 313 317 317 321 321 321 321 323 327 328 330 331 334 357 334 342 335 329 269 264 226 231 223 225 241 210 211 221 246 243 256 275 268 196 248 295 300 317 317 346 332 325 331
276 287 296 303 309 313 314 317 318 319 318 319 323 326 330 329 327 324 339 334 330 321 273 217 201 222 220 214 228 234 206 227 244 256 268 273 281 267 300 294 283 308 347 331 329 360 46
272 282 290 298 304 309 311 314 315 316 315 313 319 321 322 323 317 316 325 325 319 290 259 141 185 191 206 208 216 222 223 220 251 275 259 269 287 314 281 316 333 315 322 319 20 10 350
268 277 285 294 299 303 308 309 311 313 311 309 312 315 311 317 311 334 317 312 305 236 241 158 139 186 197 206 227 214 204 229 263 270 279 287 284 289 275 283 302 301 288 228 52 26 339
260 271 278 287 295 299 301 307 309 309 309 306 307 306 299 296 275 284 314 306 236 247 121 154 180 192 202 198 222 211 192 220 230 240 250 257 251 245 255 312 285 237 299 317 271 36 237
256 262 271 281 290 296 300 302 305 306 308 303 305 301 292 283 282 282 298 266 257 245 216 82 190 190 202 201 208 224 217 239 213 244 274 287 335 267 164 252 318 317 299 310 321 327 349
251 259 268 275 282 287 294 299 301 305 308 303 309 303 284 278 282 252 264 243 244 345 37 207 221 186 200 208 202 216 209 253 239 210 246 284 317 149 199 307 300 321 319 345 333 289 329
247 254 263 268 274 283 291 296 297 303 305 308 315 311 277 243 212 228 246 254 297 308 329 295 226 210 195 205 195 222 214 218 246 279 194 268 311 287 120 221 267 246 294 329 335 316 19
241 250 258 259 265 275 286 293 296 299 302 306 311 280 190 190 190 225 237 239 270 89 305 266 276 220 235 198 200 215 230 242 198 246 243 265 271 289 315 278 277 195 231 255 298 311 11
241 246 249 251 261 275 284 293 296 299 299 311 286 254 182 185 214 234 245 243 270 279 260 256 277 298 251 63 181 219 220 207 69 236 280 231 228 269 281 333 36 28 336 302 311 336 218
236 237 240 244 255 268 279 289 290 293 298 308 259 259 233 205 237 237 242 255 244 256 254 235 256 283 346 136 209 255 109 76 79 216 7 292 261 259 264 236 43 316 270 258 249 230 276
232 231 232 237 245 257 271 285 284 279 284 288 287 258 223 221 242 278 287 269 235 217 276 281 296 245 237 262 175 259 210 118 143 196 69 11 300 270 288 315 301 220 235 269 289 256 288
229 229 233 235 241 250 262 272 275 268 265 251 237 255 299 211 226 237 253 284 234 207 212 215 248 251 233 240 230 203 253 133 162 162 204 208 261 272 277 285 291 301 289 283 291 287 276
224 226 229 233 238 245 254 266 265 256 253 238 264 295 327 279 301 280 228 250 273 235 214 220 227 234 248 233 345 17 11 23 165 145 208 186 266 264 279 283 281 278 290 279 277 291 307
221 225 225 228 233 241 251 259 256 247 236 232 255 286 280 283 240 263 241 234 249 256 266 249 317 252 255 32 7 10 350 340 333 315 213 190 251 265 270 287 320 306 302 351 346 338 329
219 221 221 223 229 240 248 250 245 238 233 223 264 325 282 257 265 233 245 232 233 246 234 265 224 267 28 331 306 279 305 296 275 244 250 283 256 267 278 280 275 3 113 192 9 315 313
215 216 217 220 225 236 245 242 238 232 234 233 223 283 286 283 270 273 246 241 262 242 247 274 266 80 337 301 266 245 254 247 247 251 236 202 261 283 283 282 279 225 36 309 166 285 344
214 212 216 219 225 235 237 234 231 228 231 233 210 247 247 288 248 326 307 215 243 240 245 236 246 10 317 264 236 244 254 257 229 228 237 204 199 249 269 284 291 253 121 216 248 247 36
225 211 213 218 225 230 230 226 225 222 225 220 203 222 236 264 278 311 331 332 270 260 289 231 215 200 216 249 242 246 241 240 262 266 236 84 350 71 295 253 262 29 180 254 279 37 345
224 207 209 214 218 224 221 218 219 216 218 212 211 237 222 259 273 304 298 304 323 300 269 11 233 197 261 234 247 247 255 264 269 255 268 182 149 179 240 313 245 350 346 2 328 323 325
215 199 204 207 213 216 213 211 213 211 209 204 225 261 235 247 267 308 288 263 275 303 328 300 337 308 6 281 238 261 263 268 263 271 234 246 281 169 152 217 201 190 203 252 242 350 332